Weather History for St. Paul, MN

Change the Weather History Date:

Saturday, December 8, 2012

  Actual Average Record
Temperature  
Mean Temperature 30 °F -  
Max Temperature 34 °F 32 °F 46 °F (1999)
Min Temperature 27 °F 18 °F -2 °F (2007)
Degree Days  
Heating Degree Days 34    
Moisture  
Dew Point 24 °F    
Average Humidity 78    
Maximum Humidity 89    
Minimum Humidity 70    
Precipitation  
Precipitation 0.00 in - - ()
Sea Level Pressure  
Sea Level Pressure 30.07 in    
Wind  
Wind Speed 4 mph (ESE)    
Max Wind Speed 9 mph    
Max Gust Speed -    
Visibility 9 miles    
Events      
Averages and records for this station are not official NWS values.
T = Trace of Precipitation, MM = Missing Value Source: NWS Daily Summary

Daily Weather History Graph

Daily Weather History Graph

Search for Another Location

Airport:

Trip Planner

Search our weather history database for the weather conditions in past years. The results will help you decide how hot, cold, wet, or windy it might be!

Date:

Astronomy

Dec. 08, 2012 Rise Set
Actual Time 7:37 AM CST 4:30 PM CST
Civil Twilight 7:04 AM CST 5:04 PM CST
Nautical Twilight 6:27 AM CST 5:41 PM CST
Astronomical Twilight 5:51 AM CST 6:16 PM CST
Moon 1:51 AM CST (12/8) 1:11 PM CST (12/8)
Length of Visible Light 9h 59m
Length of Day
8h 52m
Waning Crescent, 28% of the Moon is Illuminated
Dec 8
Waning Crescent
Dec 13
New
Dec 19
First Quarter
Dec 28
Full
Jan 4
Last Quarter

Hourly Weather History & Observations

Time (CST) Temp. Windchill Dew Point Humidity Pressure Visibility Wind Dir Wind Speed Gust Speed Precip Events Conditions
12:53 AM 27.0 °F - 24.1 °F 89% 30.07 in 7.0 mi Calm Calm - N/A   Mostly Cloudy
1:53 AM 27.0 °F 23.0 °F 23.0 °F 85% 30.07 in 8.0 mi North 3.5 mph - N/A   Overcast
2:53 AM 27.0 °F 23.0 °F 21.9 °F 81% 30.07 in 9.0 mi NNE 3.5 mph - N/A   Overcast
3:53 AM 27.0 °F 23.0 °F 21.9 °F 81% 30.07 in 10.0 mi NNE 3.5 mph - N/A   Overcast
4:53 AM 27.0 °F 23.0 °F 21.0 °F 78% 30.08 in 10.0 mi NNE 3.5 mph - N/A   Overcast
5:53 AM 27.0 °F - 21.9 °F 81% 30.09 in 9.0 mi Calm Calm - N/A   Overcast
6:53 AM 27.0 °F - 21.9 °F 81% 30.09 in 9.0 mi Calm Calm - N/A   Overcast
7:53 AM 27.0 °F 23.0 °F 23.0 °F 85% 30.08 in 6.0 mi East 3.5 mph - N/A   Overcast
8:53 AM 27.0 °F 21.6 °F 23.0 °F 85% 30.09 in 6.0 mi ESE 4.6 mph - N/A   Overcast
9:53 AM 28.9 °F 22.8 °F 23.0 °F 78% 30.09 in 9.0 mi SE 5.8 mph - N/A   Partly Cloudy
10:53 AM 30.9 °F 24.3 °F 24.1 °F 76% 30.09 in 10.0 mi SE 6.9 mph - N/A   Clear
11:53 AM 32.0 °F 25.6 °F 25.0 °F 75% 30.07 in 10.0 mi SE 6.9 mph - N/A   Clear
12:53 PM 34.0 °F 29.8 °F 26.1 °F 73% 30.06 in 10.0 mi SSE 4.6 mph - N/A   Scattered Clouds
1:53 PM 34.0 °F 26.6 °F 26.1 °F 73% 30.06 in 10.0 mi South 9.2 mph - N/A   Clear
2:53 PM 34.0 °F 29.8 °F 25.0 °F 70% 30.05 in 10.0 mi South 4.6 mph - N/A   Clear
3:53 PM 32.0 °F 27.5 °F 25.0 °F 75% 30.04 in 10.0 mi ESE 4.6 mph - N/A   Clear
4:53 PM 30.2 °F 24.3 °F 24.8 °F 80% 30.03 in 10.0 mi ESE 5.8 mph - N/A   Clear
5:53 PM 32.0 °F 24.2 °F 24.1 °F 73% 30.04 in 10.0 mi ESE 9.2 mph - N/A   Clear
6:53 PM 30.9 °F 25.2 °F 24.1 °F 76% 30.06 in 10.0 mi SE 5.8 mph - N/A   Clear
7:53 PM 30.9 °F 27.5 °F 25.0 °F 79% 30.07 in 10.0 mi SE 3.5 mph - N/A   Clear
8:53 PM 30.9 °F 24.3 °F 24.1 °F 76% 30.06 in 10.0 mi ESE 6.9 mph - N/A   Partly Cloudy
9:53 PM 30.9 °F 25.2 °F 24.1 °F 76% 30.04 in 10.0 mi ESE 5.8 mph - N/A   Partly Cloudy
10:53 PM 32.0 °F 25.6 °F 24.1 °F 73% 30.04 in 10.0 mi ESE 6.9 mph - N/A   Overcast
11:53 PM 33.1 °F 26.9 °F 24.1 °F 70% 30.06 in 10.0 mi ESE 6.9 mph - N/A   Overcast